Showing default

YUNYAO-1 46, 63347

Orbit data source: Space-Track

YUNYAO-1 46, 63347 is a payload satellite owned by Yunyao yuhang (CN) in SSO that was launched on Fri, 21 Mar 2025 UTC via a GUSHENXING 1 launch vehicle from the Jiuquan Satellite Launch Center, China (JSC). Payload-class satellites include a variety of spacecraft equipped with specific instruments for various scientific and technological missions. These include communications satellites like Starlink; space stations such as the ISS; scientific satellites like the Hubble; Earth observation satellites from companies like Planet Labs, Umbra, and HawkEye 360; GPS; miniature CubeSats for education and research; and military/defense satellites.

Loading next visibility...
Identifier
63347, 2025-059D
Orbit
SSO
Last TLE update
6 hours ago
Origin
Manufacturer
Changguang WJ
Mission
Operational spacecraft
Bus & Motor
YY-1, Unknown motor
Mass
~50 kg wet, ~50 kg dry
Launch date (UTC)
2025-03-21 (3 months ago)
Launch vehicle
GUSHENXING 1
Launch site
Jiuquan Satellite Launch Center, China (JSC)
Object type
Payload
Rocket body
Debris
Shape & HBR
Unknown
Radar Cross Section
Medium (>0.1 m² and <1 m²)

Expand to show TLE details & history

TLE from 6 hours ago
0 YUNYAO-1 46
1 63347U 25059D   25182.15766024  .00002446  00000-0  16363-3 0  9991
2 63347  97.6023   1.3854 0011142 267.2802  92.7150 15.07837332 15345
Epoch: 2025-07-01T03:47Z
TLE epoch observation values (Epoch: 2025-07-01T03:47:01.844Z)
Latitude
-0.0001°
Longitude
25.17059°
Altitude
546.252 km
Speed
7.589 km/s
True Right ascension
00h 05m 32s
True Declination
0° 00' 00"
Sunlit
Object was in daylight at epoch
Visualization orbit readout
Latitude
11.43998°
Longitude
-153.06264°
Altitude
546.187 km
Speed
7.589 km/s
Apparent Right ascension
10h 51m 30s
Apparent Declination
-14° 14' 14"
Sunlit
Object is in daylight
Visualization observer readout
Local Sidereal Time
20:56:42
Azimuth
307.484° NW
Elevation
-54.088°
Doppler factor
1
Orbital elements
Apogee altitude
547.508 km
Perigee altitude
532.092 km
Semi-major axis
6,917.937 km
Eccentricity
0.00111
Inclination
97.6023°
RAAN
1.3854°
Arg. of periapsis
267.2802°
True anomaly
Unknown
Mean anomaly
92.715°
Eccentric anomaly
Unknown
Mean motion
3.77206 °/min
Orbital period
95.44 mins
BSTAR
0.00016363
Loading maneuver chart data...
Loading SW <> Apogee altitude chart data...
Loading historical data...
Loading historical data...
Loading historical data...
Loading historical data...
Loading historical data...
Loading historical data...
Loading historical data...
Other satellites on launch #59 in the year 2025 (2025-03-21 UTC)

YUNYAO-1 46 Visibility forecast

Observer location: undefined°, undefined°

Span
Click to sort rows by Start time (UTC) header in descending order
Start Az.
Max El. time (UTC)
Max El. Az.
Max El.
End time (UTC)
End Az.
7 mins2025-07-01 11:52:27.150Z159.445° S2025-07-01 11:55:27.150Z99.656° ESE43.614°2025-07-01 11:59:27.150Z351.841° N
6 mins2025-07-02 01:03:27.150Z2.051° NNE2025-07-02 01:06:27.150Z268.612° W41.262°2025-07-02 01:09:27.150Z206.082° SW
|